Simultaneous Nadir Overpasses (SNOs) Predictions

Prediction of SNOs between GOES-16 and AQUA Satellite Orbit:

Table of predicted SNOs for the next 14.0 days since TLE Epoch: 1/25/2019
Index Date Time (GOES-16) GOES-16 Lat,Lon AQUA Lat,Lon Distance(km) Time Diff (sec)
1 01/26/2019 06:38:23 0.02, -75.19 0.03, -75.34 16.26 80
2 01/28/2019 06:23:32 0.03, -75.20 -0.58, -72.38 320.91 80
3 01/28/2019 18:44:57 -0.03, -75.21 -0.52, -77.57 268.82 80
4 01/30/2019 18:35:26 -0.03, -75.22 0.09, -74.61 68.79 80
5 02/01/2019 18:20:35 -0.04, -75.24 0.70, -71.65 406.93 80
6 02/02/2019 06:44:30 0.04, -75.24 0.40, -76.80 178.91 80
7 02/04/2019 06:29:40 0.04, -75.26 -0.27, -73.86 159.98 80
8 02/04/2019 18:53:44 -0.05, -75.27 -0.82, -79.05 429.41 80
9 02/06/2019 06:17:29 0.05, -75.29 -0.89, -70.90 499.45 80
10 02/06/2019 18:41:33 -0.05, -75.30 -0.20, -76.10 89.69 80
11 02/08/2019 18:26:42 -0.05, -75.34 0.43, -73.14 250.68 80




NCC Satellite Simultaneous Nadir Overpasses (SNOs) Prediction Service
